#timestamp,LO_Frequency,Hit,StdDev 
1528635615.2,286047002.3,N
1528635635.1,286047001.9,N
1528635636.0,286047001.9,N
1528635655.8,286047004.3,Y
1528635675.6,286047001.5,P
1528635695.5,286047002.8,P
1528635715.3,286047000.3,N
1528635735.1,286047002.8,Y
1528635755.9,286047000.3,P
1528635775.7,286047000.0,N
1528635795.6,286047000.1,N
1528635815.4,286047000.8,N
1528635835.2,286047000.5,N
1528635855.1,286047001.1,N
1528635856.0,286047001.1,N
1528635875.8,286046999.7,N
1528635895.7,286047000.0,N
1528635915.5,286046998.1,Y
1528635935.3,286047000.4,P
1528635955.2,286046998.5,P
1528635975.0,286046998.4,N
1528635975.9,286046998.4,N
1528635995.7,286046999.0,N
1528636015.6,286046998.8,N
1528636035.4,286046998.9,N
1528636055.3,286046998.4,N
1528636075.1,286046998.8,N
1528636076.0,286046998.8,N
1528636095.8,286046998.4,N
1528636115.7,286046998.2,N
1528636135.5,286046998.5,N
1528636155.3,286046999.0,N
1528636175.2,286046999.6,N
1528636195.0,286046998.9,N
1528636195.9,286046998.9,N
1528636215.8,286046998.8,N
1528636235.6,286046999.0,N
1528636255.4,286046999.4,N
1528636275.3,286046996.6,Y
1528636295.1,286046996.5,P
1528636315.9,286046997.1,N
1528636335.7,286046997.7,N
1528636355.5,286046995.1,Y
1528636375.4,286046999.1,P
1528636395.2,286046998.3,N
1528636415.1,286047001.0,N
1528636416.0,286047001.0,N
1528636435.8,286046998.8,N
1528636455.6,286046998.9,N
1528636475.5,286046999.3,N
1528636495.3,286046999.2,N
1528636515.1,286046999.1,N
1528636535.9,286046997.3,N
1528636555.7,286046997.3,N
1528636575.6,286046997.4,N
1528636595.4,286046998.0,N
1528636615.2,286046998.0,N
1528636635.1,286046997.4,N
1528636636.0,286046997.4,N
1528636655.8,286046996.8,N
1528636675.6,286046996.7,N
1528636695.5,286046998.9,N
1528636715.3,286046999.0,N
1528636735.2,286046997.1,N
1528636755.9,286046997.5,N
1528636775.7,286046996.2,Y
1528636795.6,286046997.5,P
1528636815.4,286046997.4,P
1528636835.2,286046998.0,P
1528636855.1,286046997.4,Y
1528636856.0,286046997.4,P
1528636875.8,286047000.9,P
1528636895.7,286047001.1,N
1528636915.5,286047001.0,N
1528636935.3,286047000.7,N
1528636955.2,286046998.7,N
1528636975.0,286046999.2,N
1528636975.9,286046999.2,N
1528636995.7,286046996.9,N
1528637015.6,286046999.0,N
1528637035.4,286046999.0,N
1528637055.3,286046999.4,N
1528637075.1,286046999.4,N
1528637095.8,286046998.7,N
1528637115.7,286046998.5,N
1528637135.5,286046998.4,N
1528637155.4,286046998.7,N
1528637175.2,286046999.3,N
1528637195.0,286046998.4,N
1528637195.9,286046998.4,N
1528637215.8,286047001.2,N
1528637235.6,286046998.2,N
1528637255.4,286046998.7,N
1528637275.3,286047001.1,N
1528637295.1,286046998.3,N
1528637315.9,286046998.7,N
1528637335.7,286046998.3,N
1528637355.5,286046999.0,N
1528637375.4,286046997.0,N
1528637395.2,286046996.5,Y
1528637415.1,286046998.1,P
1528637416.0,286046998.1,P
1528637435.8,286047000.7,N
1528637455.6,286046998.4,N
1528637475.5,286046998.8,N
1528637495.3,286046996.5,Y
1528637515.1,286046998.5,P
1528637535.9,286047000.7,P
1528637555.7,286046998.2,N
1528637575.6,286046998.4,N
1528637595.4,286046999.0,N
1528637615.2,286046999.0,N
1528637635.1,286046998.6,N
1528637636.0,286046998.6,N
1528637655.8,286046998.9,N
1528637675.6,286046998.9,N
1528637695.5,286046998.1,Y
1528637715.3,286047002.7,P
1528637735.2,286046999.8,N
1528637755.0,286047000.1,N
1528637755.9,286047000.1,N
1528637775.7,286046999.7,N
1528637795.6,286047002.5,N
1528637815.4,286046999.8,N
1528637835.3,286047000.3,N
1528637855.1,286047000.7,N
1528637856.0,286047000.7,N
1528637875.8,286047000.6,N
1528637895.7,286047000.5,N
1528637915.5,286047002.7,N
1528637935.3,286047000.5,N
1528637955.2,286047000.2,N
1528637975.0,286047002.8,N
1528637975.9,286047002.8,N
1528637995.8,286047000.4,N
1528638015.6,286047000.8,N
1528638035.4,286047000.6,N
1528638055.3,286047000.6,N
1528638075.1,286046998.2,N
1528638095.9,286047000.9,N
1528638115.7,286047001.0,N
1528638135.5,286047000.1,N
1528638155.4,286046999.7,N
1528638175.2,286047002.5,N
1528638195.0,286046999.8,N
1528638195.9,286046999.8,N
1528638215.8,286047000.8,N
1528638235.6,286047002.7,N
1528638255.5,286047001.9,N
1528638275.3,286047001.7,N
1528638295.1,286047001.9,N
1528638315.9,286047001.8,N
1528638335.7,286047001.7,N
1528638355.5,286047002.5,N
1528638375.4,286047002.6,N
1528638395.2,286047002.4,N
1528638415.1,286047002.8,N
1528638416.0,286047002.8,N
1528638435.8,286047000.5,N
1528638455.6,286047000.4,N
1528638475.5,286047000.9,N
1528638495.3,286046998.6,N
1528638515.1,286047000.6,N
1528638535.9,286047000.0,N
1528638555.7,286047000.5,N
1528638575.6,286047000.0,N
1528638595.4,286047000.2,N
1528638615.2,286047000.6,N
1528638635.1,286047000.8,N
1528638636.0,286047000.8,N
1528638655.8,286047000.1,N
1528638675.6,286047000.5,N
1528638695.5,286047001.0,N
1528638715.3,286047000.3,N
1528638735.2,286047002.8,N
1528638755.9,286047002.1,N
1528638775.7,286047002.2,N
1528638795.6,286046999.8,N
1528638815.0,286047001.7,N
1528638815.9,286047001.7,N
1528638835.8,286047001.8,N
1528638855.6,286047002.0,N
1528638875.4,286047001.8,N
1528638895.3,286047001.8,N
1528638915.1,286047001.7,N
1528638935.9,286047004.3,Y
1528638955.7,286047002.6,P
1528638975.5,286047002.5,P
1528638995.4,286047002.8,P
1528639015.2,286047002.4,Y
1528639035.1,286046998.4,P
1528639036.0,286046998.4,N
1528639055.8,286046998.2,N
1528639075.6,286046999.3,N
1528639095.5,286046999.4,N
1528639115.3,286046998.9,N
1528639135.2,286046998.6,N
1528639155.9,286046998.1,N
1528639175.7,286046998.2,N
1528639195.6,286047001.1,N
